FW4319 Weather Reports


time (UTC)temp
C
wind
direction
speed
KPH
gust
KPH
rain 1hr
cm
rain 24hr
cm
rain mn
cm
humidity
%
barometer
mb
20260507051503 14 115 0.0 0.0 0.00 0.00 0.00 81 1017.1
20260507050002 14 115 0.0 0.0 0.00 0.00 0.00 80 1017.1
20260507044501 15 115 0.0 0.0 0.00 0.00 0.00 79 1017.0
20260507043101 15 115 0.0 0.0 0.00 0.00 0.00 77 1016.9
20260507041601 16 115 0.0 0.0 0.00 0.00 0.00 76 1016.8
20260507034600 16 115 0.0 0.0 0.00 0.00 0.00 74 1016.5
20260507033105 17 115 0.0 3.2 0.00 0.00 0.00 73 1016.3
20260507031558 17 115 0.0 1.6 0.00 0.00 0.00 72 1016.2
20260507030058 17 115 0.0 0.0 0.00 0.00 0.00 71 1016.1
20260507024607 18 115 0.0 1.6 0.00 0.00 0.00 69 1015.8
20260507023055 19 115 1.6 4.8 0.00 0.00 0.00 66 1015.7
20260507021555 20 115 1.6 4.8 0.00 0.00 0.00 63 1015.6
20260507020109 21 114 0.0 4.8 0.00 0.00 0.00 61 1015.6
20260507014555 21 114 0.0 4.8 0.00 0.00 0.00 59 1015.5
20260507013056 22 115 0.0 3.2 0.00 0.00 0.00 56 1015.4
20260507011549 23 115 0.0 4.8 0.00 0.00 0.00 55 1015.3
20260507010053 23 114 0.0 9.7 0.00 0.00 0.00 54 1015.0
20260507004554 24 115 0.0 4.8 0.00 0.00 0.00 51 1015.0
20260507003049 25 115 1.6 3.2 0.00 0.00 0.00 50 1015.0
20260507001547 25 114 1.6 6.4 0.00 0.00 0.00 49 1015.0
20260507000043 25 114 1.6 6.4 0.00 0.00 0.00 48 1014.9
20260506234548 25 114 0.0 4.8 0.00 0.00 0.00 47 1014.9
20260506233051 25 115 1.6 6.4 0.00 0.00 0.00 45 1015.0
20260506231539 25 115 3.2 6.4 0.00 0.00 0.00 44 1015.1
20260506230045 25 115 1.6 6.4 0.00 0.00 0.00 47 1015.3
20260506224536 25 114 1.6 8.0 0.00 0.00 0.00 48 1015.3
20260506223041 25 115 0.0 6.4 0.00 0.00 0.00 47 1015.5
20260506221530 25 115 1.6 9.7 0.00 0.00 0.00 47 1015.7
20260506220029 25 114 1.6 6.4 0.00 0.00 0.00 47 1015.8
20260506214537 25 114 1.6 8.0 0.00 0.00 0.00 46 1016.1
20260506213025 24 115 0.0 9.7 0.00 0.00 0.00 48 1016.3
20260506211522 24 114 1.6 4.8 0.00 0.00 0.00 45 1016.4
20260506210021 23 114 0.0 4.8 0.00 0.00 0.00 47 1016.7
20260506204516 23 115 0.0 4.8 0.00 0.00 0.00 48 1016.9
20260506203012 22 115 3.2 11.3 0.00 0.00 0.00 50 1017.0
20260506201512 22 115 3.2 8.0 0.00 0.00 0.00 54 1017.2
20260506200007 21 115 0.0 8.0 0.00 0.00 0.00 54 1017.5
20260506194505 21 114 1.6 9.7 0.00 0.00 0.00 54 1017.6
20260506193003 21 115 0.0 6.4 0.00 0.00 0.00 54 1017.8
20260506191502 20 115 1.6 6.4 0.00 0.00 0.00 56 1018.0
20260506190004 20 115 1.6 6.4 0.00 0.00 0.00 58 1018.1
20260506184604 20 115 0.0 6.4 0.00 0.00 0.00 59 1018.3
20260506183104 19 114 1.6 4.8 0.00 0.00 0.00 59 1018.5
20260506181620 18 114 0.0 6.4 0.00 0.00 0.00 61 1018.6
20260506180052 18 114 3.2 9.7 0.00 0.00 0.00 59 1018.7
20260506174550 17 114 0.0 4.8 0.00 0.00 0.00 64 1018.7
20260506173058 17 115 0.0 6.4 0.00 0.00 0.00 63 1018.7
20260506171545 16 114 1.6 8.0 0.00 0.00 0.00 65 1018.7
20260506170047 16 114 1.6 8.0 0.00 0.00 0.00 64 1018.7
20260506164541 15 115 0.0 4.8 0.00 0.00 0.00 69 1018.7
20260506163040 15 114 0.0 3.2 0.00 0.00 0.00 70 1018.7
20260506161535 14 114 0.0 4.8 0.00 0.00 0.00 71 1018.8
20260506160034 14 114 0.0 6.4 0.00 0.00 0.00 74 1018.7
20260506154528 13 114 0.0 0.0 0.00 0.00 0.00 75 1018.6
20260506153024 12 114 0.0 0.0 0.00 0.00 0.00 77 1018.7
20260506151521 11 114 0.0 0.0 0.00 0.00 0.00 81 1018.8
20260506150018 11 114 0.0 0.0 0.00 0.00 0.00 83 1018.8
20260506144519 10 114 0.0 0.0 0.00 0.00 0.00 83 1018.8
20260506143014 10 114 0.0 0.0 0.00 0.00 0.00 86 1018.7
20260506141507 9 115 0.0 0.0 0.00 0.00 0.00 90 1018.6
20260506140005 -17 0.0 0.0 0.00 0.00 0.00 1018.5
20260506134559 -17 0.0 0.0 0.00 0.00 0.00 1018.5
20260506133055 -17 0.0 0.0 0.00 0.00 0.00 1018.3
20260506131554 -17 0.0 0.0 0.00 0.00 0.00 1018.0
20260506130046 -17 0.0 0.0 0.00 0.00 0.00 1017.9
20260506124543 -17 188 0.0 0.0 0.00 0.03 0.00 1017.9
20260506123040 7 190 0.0 0.0 0.00 0.03 0.00 90 1017.8
20260506121539 7 190 0.0 0.0 0.00 0.03 0.00 90 1017.7
20260506120041 7 190 0.0 0.0 0.00 0.03 0.00 90 1017.6
20260506114538 7 190 0.0 0.0 0.00 0.10 0.00 90 1017.7
20260506113041 7 190 0.0 0.0 0.00 0.10 0.00 89 1017.6
20260506111536 7 190 0.0 0.0 0.00 0.10 0.00 90 1017.5
20260506110036 7 190 0.0 0.0 0.00 0.10 0.00 90 1017.5
20260506104535 7 190 0.0 0.0 0.00 0.30 0.00 89 1017.6
20260506103032 7 190 0.0 0.0 0.00 0.30 0.00 89 1017.6
20260506101531 8 190 0.0 0.0 0.00 0.30 0.00 88 1017.6
20260506100034 8 190 0.0 0.0 0.00 0.30 0.00 88 1017.6
20260506094530 8 190 0.0 0.0 0.00 0.38 0.00 88 1017.6
20260506093028 8 190 0.0 0.0 0.00 0.38 0.00 88 1017.6
20260506091528 8 190 0.0 0.0 0.00 0.38 0.00 88 1017.6
20260506090029 8 190 0.0 0.0 0.00 0.38 0.00 88 1017.7
20260506084525 8 190 0.0 0.0 0.00 0.38 0.00 87 1017.7
20260506083023 8 190 0.0 0.0 0.00 0.38 0.00 87 1017.9
20260506081521 8 190 0.0 0.0 0.00 0.38 0.00 87 1017.9
20260506073019 8 190 0.0 0.0 0.00 0.38 0.00 86 1017.9
20260506071518 8 190 0.0 0.0 0.00 0.38 0.00 86 1018.0
20260506061510 9 188 0.0 0.0 0.00 0.38 0.38 84 1017.5